Weather in Aralsk

Kazakhstan     46°48′02″N   61°39′22″E
temp.,
°C
wind,
m/s
gust,
m/s
humid.,
%
clouds,
%
prec.,
mm/h
press.,
hPa
HPBL,
m
8 may, sat
sat823:00+17ene467387 1.9 1013105
02:00+16ese22822 0.0 101216
05:00+15nw33851 0.0 101237
08:00+17nw34665 0.0 1013231
11:00+21wnw33470 0.0 1013922
14:00+23wsw664235 0.0 10131263
17:00+23wsw774042 0.0 10121313
20:00+21wnw6843100 0.0 1012935
9 may, sun
sun923:00+18nnw8114480 0.0 1013540
02:00+16nnw71148100 0.0 1013638
05:00+14nw711575 0.0 1014499
08:00+15nw811540 0.0 1015966
11:00+20nnw912340 0.0 10151688
14:00+23nw911295 0.0 10152457
17:00+24nw912240 0.0 10142949
20:00+22nw47270 0.0 1014170
10 may, mon
mon1023:00+19n35390 0.0 1016104
02:00+16ssw11455 0.0 101511
05:00+16w33440 0.0 101628
08:00+19nw46370 0.0 1017321
11:00+23nnw57260 0.0 10161940
14:00+26nnw67200 0.0 10162506
17:00+26nw77212 0.0 10152628
20:00+24n710272 0.0 1016413
11 may, tue
tue1123:00+18ne711540 0.0 1018547
02:00+16nne610630 0.0 1019542
05:00+13n58680 0.0 1020517
08:00+14nne89630 0.0 1021731
11:00+19nne78485 0.0 10221119
14:00+22ne88375 0.0 10211530
17:00+24ne893040 0.0 10211868
20:00+22ne692750 0.0 1021358
12 may, wed
wed1223:00+20ne6122796 0.0 1022324
02:00+18ne612340 0.0 1023265
05:00+15ene59420 0.0 1023160
08:00+18ene56335 0.0 1024335
11:00+22ene56245 0.0 10241477
14:00+25ne661864 0.0 10231841
17:00+25ne661659 0.0 10221926
20:00+23ne57195 0.0 1021167